Regional Weather Roundup
Issued by NWS

Home | Current Version | Previous Version | Text Only | Print | Product List | Glossary Off
Versions: 1 2 3 4 5 6 7 8 9 10 11 12 13 14 15 16 17 18 19 20 21 22 23 24 25 26 27 28 29 30 31 32 33 34 35 36 37 38 39 40 41 42 43 44 45 46 47 48 49 50

385
ASUS43 KDMX 132201
RWRIA

WEATHER ROUNDUP FOR IOWA
NATIONAL WEATHER SERVICE DES MOINES IA
400 PM CST WED DEC 13 2017

NOTE: "FAIR" INDICATES FEW OR NO CLOUDS BELOW 12,000 FEET WITH NO
SIGNIFICANT WEATHER AND/OR OBSTRUCTIONS TO VISIBILITY.

* - THESE STATIONS ARE NOT NWS STATIONS...THUS NOT UNDER NWS
QUALITY CONTROL.  THEY ALSO DO NOT REPORT WEATHER SUCH
AS PRECIPITATION OR FOG.

IAZ001>003-012>014-020>022-031>034-043>046-132300-
   NORTHWEST IOWA

CITY           SKY/WX    TMP DP  RH WIND       PRES   REMARKS
CARROLL *      CLOUDY    37  30  75 NW31G37   29.78R WCI  25
CHEROKEE *     CLOUDY    36  31  82 NW12G20   29.81R WCI  27
DENISON *      CLOUDY    39  27  60 NW28G37   29.82R WCI  28
LE MARS *      CLOUDY    39  28  65 NW20G26   29.83R WCI  30
ORANGE CITY *  CLOUDY    37  34  87 NW7       29.82R WCI  32
SHELDON *      CLOUDY    36  30  80 NW18G26   29.79R WCI  25
SIOUX CITY     CLOUDY    40  29  64 NW25G35   29.83R WCI  29
SPENCER        CLOUDY    34  25  69 NW21G31   29.79R WCI  22
STORM LAKE *   CLOUDY    36  28  75 NW20G26   29.78R WCI  25
$$

IAZ055>058-069>071-079>083-090>094-132300-
   SOUTHWEST IOWA

CITY           SKY/WX    TMP DP  RH WIND       PRES   REMARKS
ATLANTIC *     CLOUDY    43  30  61 NW29G38   29.79R
AUDUBON *      CLOUDY    39  30  70 NW21G29   29.79R WCI  29
CLARINDA *     CLEAR     48  30  49 N23G32      N/A
COUNCIL BLFS * MOCLDY    45  30  57 NW24G37   29.82R
CRESTON *      CLOUDY    43  30  61 NW25      29.77R
HARLAN  *      CLOUDY    41  28  60 NW24G31   29.84R
LAMONI         PTCLDY    46  29  51 NW21G28   29.73R
RED OAK *      PTCLDY    46  30  53 N20G28    29.81R
SHENANDOAH *   CLEAR     50  30  46 NW20G29   29.81R
$$

IAZ047>049-059>061-072>074-084-132300-
   CENTRAL IOWA

CITY           SKY/WX    TMP DP  RH WIND       PRES   REMARKS
AMES           CLOUDY    37  27  67 NW29G40   29.71R WCI  25
ANKENY *       CLOUDY    37  27  65 NW24G40   29.75R WCI  26
BOONE *        CLOUDY    36  27  69 NW32G45   29.71R WCI  22
CHARITON *     CLOUDY    39  30  70 NW24G31   29.72R WCI  28
DES MOINES     CLOUDY    38  27  64 NW26G40   29.74R WCI  26
GRINNELL*      CLOUDY    35  28  75 NW29G40   29.68R WCI  21
KNOXVILLE *    CLOUDY    37  28  70 NW30G40   29.70R WCI  25
MARSHALLTOWN   CLOUDY    34  27  75 NW26G43   29.67R WCI  21
NEWTON *       CLOUDY    36  25  64 NW26G36   29.70R WCI  23
PELLA *        CLOUDY    36  29  76 NW18G29   29.72R WCI  26
$$

IAZ004>006-015-016-023>025-035-036-132300-
   NORTH CENTRAL IOWA

CITY           SKY/WX    TMP DP  RH WIND       PRES   REMARKS
ALGONA *       CLOUDY    34  23  64 NW36G56   29.73R WCI  19
CLARION *      CLOUDY    32  27  80 NW30G44   29.71R WCI  18
ESTHERVILLE    CLOUDY    31  22  69 NW37G52   29.74R WCI  15
FORT DODGE *   CLOUDY    35  23  61 NW17G29   29.75R WCI  25
MASON CITY     CLOUDY    29  22  75 NW30G37   29.68R WCI  13
FOREST CITY *  CLOUDY    32  27  80 NW23G32   29.68R WCI  19
WEBSTER CITY * CLOUDY    36  23  60 NW33G43   29.70R WCI  22
IOWA FALLS *   CLOUDY    34  27  75 NW32G41   29.68R WCI  20
$$

IAZ007>011-017>019-026>030-037>042-050>054-066-132300-
   NORTHEAST IOWA

CITY           SKY/WX    TMP DP  RH WIND       PRES   REMARKS
CEDAR RAPIDS   CLOUDY    33  28  81 NW33G43   29.58R WCI  18
CHARLES CITY * MIX PCPN  30  27  86 NW25G33   29.62R WCI  16
CLINTON *      CLOUDY    34  25  69 NW30G38   29.50R WCI  20
DECORAH *      CLOUDY    27  21  80 NW14G28   29.58R WCI  15
DUBUQUE        CLOUDY    28  23  81 NW28G39   29.51R WCI  13
MONTICELLO *   CLOUDY    34  25  69 NW31G46   29.54R WCI  20
OELWEIN *      CLOUDY    32  27  80 NW29G38   29.59R WCI  18
WATERLOO       CLOUDY    32  24  72 NW29G38   29.62R WCI  18
$$

IAZ064-065-067-068-078-132300-
   EAST CENTRAL IOWA

CITY           SKY/WX    TMP DP  RH WIND       PRES   REMARKS
DAVENPORT      CLOUDY    36  26  67 NW25G40   29.55R WCI  24
IOWA CITY      CLOUDY    36  28  73 NW25G37   29.62R WCI  24
MT. PLEASANT * CLOUDY    36  29  77 W24G33    29.64R WCI  24
MUSCATINE *    CLOUDY    37  28  70 NW28G45   29.60R WCI  25
QUAD CITIES    CLOUDY    38  29  70 NW25G40   29.53R WCI  27
$$

IAZ062-063-075>077-085>089-095>099-132300-
   SOUTHEAST IOWA

CITY           SKY/WX    TMP DP  RH WIND       PRES   REMARKS
BURLINGTON     CLOUDY    37  30  75 NW17G33   29.61R WCI  27
FAIRFIELD *    CLOUDY    37  27  65 NW25G46   29.65R WCI  26
FORT MADISON * CLOUDY    37  30  75 W25G35    29.64R WCI  26
KEOKUK *       CLOUDY    41  30  65 NW24G44   29.64R
OSKALOOSA *    CLOUDY    36  29  76 NW29G38   29.69R WCI  23
OTTUMWA        CLOUDY    37  29  72 NW29G39   29.68R WCI  25
WASHINGTON *   CLOUDY    36  30  80 NW24G31   29.64R WCI  24
$$

ABBREVIATIONS USED IN REMARKS
   TC - TEMPERATURES IN CELSIUS
  WCI - WIND CHILL INDEX
   HX - HEAT INDEX
  VSB - VISIBILITY
$$





USA.gov is the U.S. government's official web portal to all federal, state and local government web resources and services.